Location: Trebic
(49.2170°N, 15.8830°E)
Time: 22:14:20
(UTC+02:00)

Transit 4A - Pass Details

Date: 29 August 2019
Orbit: 866 x 978 km, 66.8° (Epoch: 13 October)

Event Time Altitude Azimuth Distance (km) Brightness Sun altitude
Rises 17:25:28 0° 202° (SSW) 3,660 11.5 22.0°
Reaches altitude 10° 17:28:03 10° 200° (SSW) 2,720 10.9 21.6°
Maximum altitude 17:34:21 65° 120° (ESE) 1,070 8.4 20.6°
Drops below altitude 10° 17:40:38 10° 40° (NE) 2,717 10.0 19.5°
Sets 17:43:12 0° 38° (NE) 3,656 10.6 19.1°
